TimeEDT,TemperatureF,Dew PointF,Humidity,Sea Level PressureIn,VisibilityMPH,Wind Direction,Wind SpeedMPH,Gust SpeedMPH,PrecipitationIn,Events,Conditions,WindDirDegrees,DateUTC
12:53 AM,75.9,72.0,87,30.02,10.0,ENE,3.5,-,N/A,,Mostly Cloudy,70,2013-09-18 04:53:00
1:53 AM,75.9,73.0,91,30.02,10.0,NNE,4.6,-,N/A,,Scattered Clouds,30,2013-09-18 05:53:00
2:53 AM,75.9,73.0,91,30.00,10.0,NE,3.5,-,N/A,,Scattered Clouds,40,2013-09-18 06:53:00
3:53 AM,75.9,73.0,91,30.00,10.0,NNE,4.6,-,N/A,,Scattered Clouds,30,2013-09-18 07:53:00
4:53 AM,75.9,73.0,91,29.99,10.0,Variable,4.6,-,N/A,,Scattered Clouds,0,2013-09-18 08:53:00
5:53 AM,75.9,72.0,87,30.00,10.0,ENE,3.5,-,N/A,,Mostly Cloudy,60,2013-09-18 09:53:00
6:53 AM,75.9,73.0,91,30.01,10.0,NE,3.5,-,N/A,,Mostly Cloudy,40,2013-09-18 10:53:00
7:53 AM,75.9,73.0,91,30.01,10.0,NNE,6.9,-,N/A,,Scattered Clouds,20,2013-09-18 11:53:00
8:53 AM,79.0,73.0,82,30.02,10.0,NE,5.8,-,N/A,,Scattered Clouds,50,2013-09-18 12:53:00
9:53 AM,81.0,73.0,77,30.04,9.0,Variable,5.8,-,N/A,,Scattered Clouds,0,2013-09-18 13:53:00
10:53 AM,84.0,72.0,67,30.04,10.0,NE,10.4,17.3,N/A,,Mostly Cloudy,50,2013-09-18 14:53:00
11:04 AM,84.2,71.6,66,30.03,10.0,ENE,8.1,-,N/A,,Scattered Clouds,60,2013-09-18 15:04:00
11:53 AM,86.0,72.0,63,30.03,10.0,ENE,8.1,20.7,N/A,,Scattered Clouds,70,2013-09-18 15:53:00
12:53 PM,89.1,71.1,55,30.02,10.0,NE,11.5,17.3,N/A,,Scattered Clouds,50,2013-09-18 16:53:00
1:53 PM,90.0,71.1,54,30.01,10.0,East,6.9,-,N/A,,Mostly Cloudy,90,2013-09-18 17:53:00
2:53 PM,84.9,70.0,61,30.00,10.0,NE,11.5,16.1,0.00,,Mostly Cloudy,50,2013-09-18 18:53:00
3:53 PM,86.0,71.1,61,29.98,10.0,East,9.2,17.3,N/A,,Mostly Cloudy,90,2013-09-18 19:53:00
4:53 PM,84.9,71.1,63,29.97,10.0,ENE,8.1,-,N/A,,Mostly Cloudy,70,2013-09-18 20:53:00
5:53 PM,86.0,70.0,59,29.98,10.0,ENE,5.8,-,N/A,,Mostly Cloudy,70,2013-09-18 21:53:00
6:53 PM,84.9,71.1,63,30.00,10.0,ENE,8.1,-,N/A,,Mostly Cloudy,60,2013-09-18 22:53:00
7:53 PM,79.0,70.0,74,30.03,10.0,ENE,6.9,-,N/A,,Overcast,70,2013-09-18 23:53:00
8:53 PM,78.1,73.0,84,30.03,10.0,ENE,6.9,-,0.12,Rain,Light Rain,70,2013-09-19 00:53:00
9:53 PM,75.9,72.0,87,30.05,10.0,ENE,4.6,-,N/A,,Scattered Clouds,60,2013-09-19 01:53:00
10:53 PM,77.0,72.0,84,30.05,10.0,NE,4.6,-,N/A,,Mostly Cloudy,40,2013-09-19 02:53:00
11:53 PM,77.0,73.0,88,30.04,10.0,NE,5.8,-,N/A,,Scattered Clouds,40,2013-09-19 03:53:00